TimeMST,TemperatureF,Dew PointF,Humidity,Sea Level PressureIn,VisibilityMPH,Wind Direction,Wind SpeedMPH,Gust SpeedMPH,PrecipitationIn,Events,Conditions,WindDirDegrees,DateUTC
12:15 AM,33.8,24.8,70,29.97,10.0,SE,9.2,-,N/A,,Clear,130,2013-11-20 07:15:00
12:35 AM,32.0,24.8,75,29.97,10.0,SE,8.1,-,N/A,,Clear,130,2013-11-20 07:35:00
12:55 AM,32.0,24.8,75,29.96,10.0,SSE,9.2,-,N/A,,Clear,150,2013-11-20 07:55:00
1:15 AM,33.8,24.8,70,29.97,10.0,SSE,9.2,-,N/A,,Partly Cloudy,160,2013-11-20 08:15:00
1:35 AM,30.2,23.0,75,29.97,10.0,SSE,6.9,-,N/A,,Clear,160,2013-11-20 08:35:00
1:55 AM,28.4,23.0,80,29.96,10.0,ESE,8.1,-,N/A,,Clear,120,2013-11-20 08:55:00
2:15 AM,32.0,24.8,75,29.97,10.0,ENE,3.5,-,N/A,,Clear,70,2013-11-20 09:15:00
2:35 AM,30.2,23.0,75,29.98,10.0,Calm,Calm,-,N/A,,Clear,0,2013-11-20 09:35:00
2:55 AM,32.0,23.0,69,29.98,10.0,Calm,Calm,-,N/A,,Clear,0,2013-11-20 09:55:00
3:15 AM,28.4,21.2,74,29.98,10.0,North,3.5,-,N/A,,Clear,360,2013-11-20 10:15:00
3:35 AM,28.4,21.2,74,29.98,10.0,North,3.5,-,N/A,,Clear,350,2013-11-20 10:35:00
3:55 AM,28.4,21.2,74,29.97,10.0,Calm,Calm,-,N/A,,Clear,0,2013-11-20 10:55:00
4:15 AM,26.6,21.2,80,29.98,10.0,Calm,Calm,-,N/A,,Clear,0,2013-11-20 11:15:00
4:35 AM,26.6,21.2,80,29.98,10.0,Calm,Calm,-,N/A,,Clear,0,2013-11-20 11:35:00
4:55 AM,24.8,19.4,80,29.98,10.0,Calm,Calm,-,N/A,,Clear,0,2013-11-20 11:55:00
5:15 AM,26.6,19.4,74,29.98,10.0,NNW,5.8,-,N/A,,Clear,330,2013-11-20 12:15:00
5:35 AM,26.6,21.2,80,29.98,10.0,North,6.9,-,N/A,,Clear,360,2013-11-20 12:35:00
5:55 AM,24.8,19.4,80,29.98,10.0,NNE,3.5,-,N/A,,Clear,20,2013-11-20 12:55:00
6:15 AM,26.6,21.2,80,29.98,10.0,Calm,Calm,-,N/A,,Clear,0,2013-11-20 13:15:00
6:35 AM,26.6,21.2,80,29.98,10.0,East,3.5,-,N/A,,Clear,90,2013-11-20 13:35:00
6:55 AM,24.8,19.4,80,29.98,10.0,North,5.8,-,N/A,,Clear,10,2013-11-20 13:55:00
7:15 AM,26.6,21.2,80,29.98,10.0,North,5.8,-,N/A,,Clear,10,2013-11-20 14:15:00
7:35 AM,30.2,24.8,80,29.98,10.0,Calm,Calm,-,N/A,,Clear,0,2013-11-20 14:35:00
7:55 AM,33.8,26.6,75,29.99,10.0,Calm,Calm,-,N/A,,Clear,0,2013-11-20 14:55:00
8:15 AM,35.6,26.6,70,29.99,10.0,Calm,Calm,-,N/A,,Clear,0,2013-11-20 15:15:00
8:35 AM,33.8,28.4,81,29.99,10.0,Calm,Calm,-,N/A,,Clear,0,2013-11-20 15:35:00
8:55 AM,37.4,26.6,65,30.00,10.0,Calm,Calm,-,N/A,,Clear,0,2013-11-20 15:55:00
9:15 AM,37.4,26.6,65,30.00,10.0,Calm,Calm,-,N/A,,Clear,0,2013-11-20 16:15:00
9:35 AM,39.2,26.6,61,30.00,10.0,Calm,Calm,-,N/A,,Clear,0,2013-11-20 16:35:00
9:55 AM,41.0,26.6,57,30.00,10.0,Calm,Calm,-,N/A,,Clear,0,2013-11-20 16:55:00
10:15 AM,42.8,26.6,53,30.00,10.0,SSE,3.5,-,N/A,,Clear,160,2013-11-20 17:15:00
10:35 AM,42.8,26.6,53,30.00,10.0,South,3.5,-,N/A,,Clear,190,2013-11-20 17:35:00
10:55 AM,44.6,26.6,49,29.99,10.0,South,5.8,-,N/A,,Clear,180,2013-11-20 17:55:00
11:15 AM,44.6,24.8,46,29.98,10.0,SSW,5.8,-,N/A,,Clear,210,2013-11-20 18:15:00
11:35 AM,44.6,26.6,49,29.98,10.0,South,8.1,-,N/A,,Clear,190,2013-11-20 18:35:00
11:55 AM,44.6,26.6,49,29.96,10.0,SW,6.9,-,N/A,,Clear,220,2013-11-20 18:55:00
12:15 PM,46.4,26.6,46,29.95,10.0,SW,8.1,-,N/A,,Clear,230,2013-11-20 19:15:00
12:35 PM,46.4,26.6,46,29.94,10.0,WSW,8.1,-,N/A,,Clear,240,2013-11-20 19:35:00
12:55 PM,46.4,26.6,46,29.93,10.0,WSW,4.6,-,N/A,,Clear,250,2013-11-20 19:55:00
1:15 PM,46.4,26.6,46,29.92,10.0,WSW,8.1,-,N/A,,Clear,240,2013-11-20 20:15:00
1:35 PM,48.2,26.6,43,29.92,10.0,SW,9.2,-,N/A,,Clear,220,2013-11-20 20:35:00
1:55 PM,48.2,26.6,43,29.91,10.0,WSW,8.1,-,N/A,,Clear,240,2013-11-20 20:55:00
2:15 PM,46.4,26.6,46,29.91,10.0,WSW,16.1,-,N/A,,Clear,250,2013-11-20 21:15:00
2:35 PM,44.6,26.6,49,29.92,10.0,WSW,17.3,23.0,N/A,,Clear,240,2013-11-20 21:35:00
2:55 PM,44.6,28.4,53,29.92,10.0,SW,17.3,-,N/A,,Scattered Clouds,230,2013-11-20 21:55:00
3:15 PM,44.6,28.4,53,29.91,10.0,SW,15.0,-,N/A,,Mostly Cloudy,230,2013-11-20 22:15:00
3:35 PM,42.8,28.4,57,29.91,10.0,WSW,12.7,-,N/A,,Mostly Cloudy,240,2013-11-20 22:35:00
3:55 PM,42.8,30.2,61,29.92,10.0,West,12.7,-,N/A,,Overcast,260,2013-11-20 22:55:00
4:15 PM,42.8,30.2,61,29.92,10.0,West,11.5,-,N/A,,Scattered Clouds,260,2013-11-20 23:15:00
4:35 PM,41.0,30.2,65,29.92,10.0,WSW,10.4,-,N/A,,Mostly Cloudy,250,2013-11-20 23:35:00
4:55 PM,41.0,30.2,65,29.93,10.0,Calm,Calm,-,N/A,,Overcast,0,2013-11-20 23:55:00
5:15 PM,39.2,30.2,70,29.93,10.0,WSW,6.9,-,N/A,,Mostly Cloudy,240,2013-11-21 00:15:00
5:35 PM,39.2,30.2,70,29.94,10.0,West,10.4,-,N/A,,Overcast,260,2013-11-21 00:35:00
5:55 PM,39.2,30.2,70,29.95,10.0,West,11.5,-,N/A,,Overcast,260,2013-11-21 00:55:00
6:15 PM,39.2,33.8,81,29.96,9.0,West,9.2,-,N/A,,Overcast,260,2013-11-21 01:15:00
6:35 PM,37.4,33.8,87,29.97,10.0,WSW,9.2,-,0.01,,Overcast,250,2013-11-21 01:35:00
6:55 PM,37.4,33.8,87,29.98,10.0,WSW,9.2,-,0.02,,Mostly Cloudy,250,2013-11-21 01:55:00
7:15 PM,37.4,33.8,87,29.98,10.0,WSW,8.1,-,0.01,,Overcast,250,2013-11-21 02:15:00
7:35 PM,37.4,33.8,87,29.97,10.0,SW,4.6,-,0.01,,Mostly Cloudy,230,2013-11-21 02:35:00
7:55 PM,37.4,33.8,87,29.97,10.0,Calm,Calm,-,0.01,,Overcast,0,2013-11-21 02:55:00
8:15 PM,37.4,33.8,87,29.97,10.0,West,4.6,-,N/A,,Overcast,270,2013-11-21 03:15:00
8:35 PM,37.4,33.8,87,29.97,10.0,WSW,8.1,-,N/A,,Overcast,240,2013-11-21 03:35:00
8:55 PM,37.4,33.8,87,29.97,10.0,WSW,8.1,-,N/A,,Overcast,240,2013-11-21 03:55:00
9:15 PM,37.4,33.8,87,29.97,10.0,SW,9.2,-,N/A,,Overcast,230,2013-11-21 04:15:00
9:35 PM,37.4,33.8,87,29.98,10.0,WSW,5.8,-,N/A,,Overcast,250,2013-11-21 04:35:00
9:55 PM,37.4,33.8,87,29.97,10.0,WSW,6.9,-,N/A,,Overcast,250,2013-11-21 04:55:00
10:15 PM,37.4,33.8,87,29.98,10.0,WSW,5.8,-,N/A,,Overcast,250,2013-11-21 05:15:00
10:35 PM,37.4,33.8,87,29.97,10.0,West,4.6,-,N/A,,Overcast,270,2013-11-21 05:35:00
10:55 PM,37.4,33.8,87,29.97,10.0,Calm,Calm,-,N/A,,Overcast,0,2013-11-21 05:55:00
11:15 PM,35.6,33.8,93,29.97,10.0,Calm,Calm,-,N/A,,Overcast,0,2013-11-21 06:15:00
11:35 PM,35.6,33.8,93,29.98,10.0,Calm,Calm,-,N/A,,Overcast,0,2013-11-21 06:35:00
11:55 PM,35.6,33.8,93,29.98,10.0,Calm,Calm,-,N/A,,Overcast,0,2013-11-21 06:55:00